{"data":{"norad_id":55358,"intl_designator":"2023-013AD","name":"STARLINK-5622","alt_names":[],"object_type":"PAYLOAD","status":"ACTIVE","operator":null,"country":"US","launch_date":"2023-01-26","launch_site_code":"AFETR","launch_vehicle":null,"mission":null,"orbit_class":"UNKNOWN","rcs_meters":null,"size_class":null,"mass_kg":null,"dimensions":null,"purposes":["comms"],"wikipedia_slug":null,"has_3d_model":false,"image_url":null,"decayed_at":null,"tle_current":{"epoch":"2026-09-20T12:44:40.971264Z","epoch_age_seconds":93986,"freshness":"FRESH","line1":"1 55358U 23013AD  26263.53102976 -.00000257  00000+0  19598-6 0  9999","line2":"2 55358  43.0025 282.8959 0001570 268.1825  91.8846 15.27574307201471","mean_motion":15.27574307,"eccentricity":0.000157,"inclination_deg":43.0025,"raan_deg":282.8959,"arg_perigee_deg":268.1825,"mean_anomaly_deg":91.8846,"bstar":1.9598e-7,"rev_number":20147,"period_min":94.267100029197,"perigee_km":481.98893408919,"apogee_km":484.14335187609,"semimajor_km":6861.2031429826,"source":"CELESTRAK","updated_at":"2026-09-21T09:00:33.184815Z"}}}